Location: Unspecified
(47.1121°N, 116.3927°W)
Time: 13:48:47
(UTC-07:00)

Resurs 1-4 Rocket - Visible Passes

Search period start: 13 October 2019 00:00
Search period end: 23 October 2019 00:00
Orbit: 800 x 814 km, 98.6° (Epoch: 12 October)

Date Brightness Start Highest point End Pass type
(mag) Time Alt. Az. Time Alt. Az. Time Alt. Az.
13 Oct 4.9 02:25:21 10° NNE 02:25:53 13° NNE 02:25:53 13° NNE visible
13 Oct 4.4 04:06:12 10° NNW 04:06:57 13° NNW 04:06:57 13° NNW visible
14 Oct 4.4 03:41:05 10° N 03:41:57 14° N 03:41:57 14° N visible
15 Oct 4.6 03:16:10 10° N 03:16:57 14° N 03:16:57 14° N visible
16 Oct 4.8 02:51:25 10° N 02:51:56 13° N 02:51:56 13° N visible
17 Oct 5.0 02:26:49 10° NNE 02:26:57 11° NNE 02:26:57 11° NNE visible
17 Oct 4.5 04:07:42 10° NNW 04:08:01 11° NNW 04:08:01 11° NNW visible
18 Oct 4.6 03:42:33 10° N 03:43:01 12° N 03:43:01 12° N visible
19 Oct 4.7 03:17:38 10° N 03:18:01 12° N 03:18:01 12° N visible
20 Oct 4.9 02:52:53 10° N 02:53:01 11° N 02:53:01 11° N visible
22 Oct 4.7 03:44:02 10° N 03:44:05 10° N 03:44:05 10° N visible
